Time,TemperatureF,DewpointF,PressureIn,WindDirection,WindDirectionDegrees,WindSpeedMPH,WindSpeedGustMPH,Humidity,HourlyPrecipIn,Conditions,Clouds,dailyrainin,SoftwareType,DateUTC
2013-01-26 00:03:00,54.3,45.5,29.85,NE,45,3.8,4.9,72,0.00,,,0.00,WUHU21623XXSP,2013-01-26 06:03:00,
2013-01-26 00:08:00,54.3,45.5,29.85,North,0,4.7,6.0,72,0.00,,,0.00,WUHU21623XXSP,2013-01-26 06:08:00,
2013-01-26 00:13:00,54.0,45.1,29.84,NNE,22,3.1,7.4,72,0.00,,,0.00,WUHU21623XXSP,2013-01-26 06:13:00,
2013-01-26 00:18:00,54.0,45.5,29.84,North,0,2.2,7.4,73,0.00,,,0.00,WUHU21623XXSP,2013-01-26 06:18:00,
2013-01-26 00:23:00,54.0,45.5,29.84,North,0,4.0,4.0,73,0.00,,,0.00,WUHU21623XXSP,2013-01-26 06:23:00,
2013-01-26 00:28:00,54.0,45.5,29.84,North,0,1.1,4.0,73,0.00,,,0.00,WUHU21623XXSP,2013-01-26 06:28:00,
2013-01-26 00:33:00,54.0,45.5,29.84,NNE,22,5.8,5.8,73,0.00,,,0.00,WUHU21623XXSP,2013-01-26 06:33:00,
2013-01-26 00:38:00,54.0,45.5,29.84,North,0,3.1,5.8,73,0.00,,,0.00,WUHU21623XXSP,2013-01-26 06:38:00,
2013-01-26 00:43:00,54.1,45.7,29.84,NNW,337,5.4,5.4,73,0.00,,,0.00,WUHU21623XXSP,2013-01-26 06:43:00,
2013-01-26 00:48:00,54.1,45.7,29.84,North,0,3.1,5.4,73,0.00,,,0.00,WUHU21623XXSP,2013-01-26 06:48:00,
2013-01-26 00:53:00,54.1,45.7,29.85,NNE,22,2.9,3.1,73,0.00,,,0.00,WUHU21623XXSP,2013-01-26 06:53:00,
2013-01-26 00:58:00,54.3,45.8,29.84,North,0,3.4,3.4,73,0.00,,,0.00,WUHU21623XXSP,2013-01-26 06:58:00,
2013-01-26 01:03:00,54.3,45.8,29.84,North,0,3.4,3.4,73,0.00,,,0.00,WUHU21623XXSP,2013-01-26 07:03:00,
2013-01-26 01:08:00,54.3,45.8,29.84,NNW,337,0.0,3.4,73,0.00,,,0.00,WUHU21623XXSP,2013-01-26 07:08:00,
2013-01-26 01:13:00,54.3,45.8,29.84,NNW,337,2.5,5.8,73,0.00,,,0.00,WUHU21623XXSP,2013-01-26 07:13:00,
2013-01-26 01:18:00,54.3,45.8,29.85,NW,315,1.6,5.8,73,0.00,,,0.00,WUHU21623XXSP,2013-01-26 07:18:00,
2013-01-26 01:23:00,54.3,45.8,29.84,NNE,22,2.7,2.7,73,0.00,,,0.00,WUHU21623XXSP,2013-01-26 07:23:00,
2013-01-26 01:28:00,54.3,45.8,29.84,North,0,3.1,3.1,73,0.00,,,0.00,WUHU21623XXSP,2013-01-26 07:28:00,
2013-01-26 01:33:00,54.1,45.7,29.84,NNE,22,6.0,6.0,73,0.00,,,0.00,WUHU21623XXSP,2013-01-26 07:33:00,
2013-01-26 01:38:00,53.8,45.3,29.84,NNE,22,2.5,6.0,73,0.00,,,0.00,WUHU21623XXSP,2013-01-26 07:38:00,
2013-01-26 01:43:00,53.8,45.7,29.84,North,0,4.0,4.0,74,0.00,,,0.00,WUHU21623XXSP,2013-01-26 07:43:00,
2013-01-26 01:48:00,53.8,45.7,29.84,NNE,22,3.1,4.0,74,0.00,,,0.00,WUHU21623XXSP,2013-01-26 07:48:00,
2013-01-26 01:53:00,53.8,45.7,29.84,NNE,22,6.9,6.9,74,0.00,,,0.00,WUHU21623XXSP,2013-01-26 07:53:00,
2013-01-26 01:58:00,53.8,45.7,29.83,NNE,22,4.5,6.9,74,0.00,,,0.00,WUHU21623XXSP,2013-01-26 07:58:00,
2013-01-26 02:03:00,53.4,45.3,29.83,NNE,22,4.9,4.9,74,0.00,,,0.00,WUHU21623XXSP,2013-01-26 08:03:00,
2013-01-26 02:08:00,53.4,45.3,29.83,NNE,22,2.9,4.9,74,0.00,,,0.00,WUHU21623XXSP,2013-01-26 08:08:00,
2013-01-26 02:13:00,53.1,45.3,29.83,NNE,22,2.9,5.8,75,0.00,,,0.00,WUHU21623XXSP,2013-01-26 08:13:00,
2013-01-26 02:18:00,52.9,45.2,29.83,NE,45,3.6,5.8,75,0.00,,,0.00,WUHU21623XXSP,2013-01-26 08:18:00,
2013-01-26 02:23:00,52.9,45.2,29.83,NNE,22,3.8,3.8,75,0.00,,,0.00,WUHU21623XXSP,2013-01-26 08:23:00,
2013-01-26 02:28:00,52.9,45.5,29.82,NE,45,3.1,3.8,76,0.00,,,0.00,WUHU21623XXSP,2013-01-26 08:28:00,
2013-01-26 02:33:00,52.9,45.5,29.83,NNE,22,6.3,6.3,76,0.00,,,0.00,WUHU21623XXSP,2013-01-26 08:33:00,
2013-01-26 02:38:00,52.9,45.5,29.83,NNE,22,2.9,6.3,76,0.00,,,0.00,WUHU21623XXSP,2013-01-26 08:38:00,
2013-01-26 02:43:00,52.9,45.5,29.83,NE,45,4.3,4.7,76,0.00,,,0.00,WUHU21623XXSP,2013-01-26 08:43:00,
2013-01-26 02:48:00,52.9,45.5,29.83,NW,315,2.2,4.7,76,0.00,,,0.00,WUHU21623XXSP,2013-01-26 08:48:00,
2013-01-26 02:54:00,52.9,45.5,29.83,NNW,337,6.0,6.0,76,0.00,,,0.00,WUHU21623XXSP,2013-01-26 08:54:00,
2013-01-26 02:59:00,52.9,45.5,29.83,North,0,5.8,6.0,76,0.00,,,0.00,WUHU21623XXSP,2013-01-26 08:59:00,
2013-01-26 03:04:00,52.9,45.5,29.83,NW,315,3.4,5.8,76,0.00,,,0.00,WUHU21623XXSP,2013-01-26 09:04:00,
2013-01-26 03:09:00,52.7,45.4,29.83,North,0,2.9,6.0,76,0.00,,,0.00,WUHU21623XXSP,2013-01-26 09:09:00,
2013-01-26 03:14:00,52.7,45.4,29.83,NE,45,4.9,6.0,76,0.00,,,0.00,WUHU21623XXSP,2013-01-26 09:14:00,
2013-01-26 03:19:00,52.7,45.4,29.83,North,0,5.8,5.8,76,0.00,,,0.00,WUHU21623XXSP,2013-01-26 09:19:00,
2013-01-26 03:24:00,52.5,45.2,29.82,North,0,4.9,5.8,76,0.00,,,0.00,WUHU21623XXSP,2013-01-26 09:24:00,
2013-01-26 03:29:00,52.5,45.2,29.82,NW,315,0.9,5.8,76,0.00,,,0.00,WUHU21623XXSP,2013-01-26 09:29:00,
2013-01-26 03:34:00,52.5,45.2,29.82,NNE,22,4.7,4.7,76,0.00,,,0.00,WUHU21623XXSP,2013-01-26 09:34:00,
2013-01-26 03:39:00,52.3,45.4,29.82,NNW,337,0.0,4.7,77,0.00,,,0.00,WUHU21623XXSP,2013-01-26 09:39:00,
2013-01-26 03:44:00,52.3,45.4,29.82,NNW,337,0.0,4.5,77,0.00,,,0.00,WUHU21623XXSP,2013-01-26 09:44:00,
2013-01-26 03:49:00,52.3,45.4,29.82,NNE,22,5.1,5.1,77,0.00,,,0.00,WUHU21623XXSP,2013-01-26 09:49:00,
2013-01-26 03:54:00,52.0,45.2,29.82,NE,45,4.5,5.1,77,0.00,,,0.00,WUHU21623XXSP,2013-01-26 09:54:00,
2013-01-26 03:59:00,51.8,45.2,29.81,NNE,22,3.8,4.5,78,0.00,,,0.00,WUHU21623XXSP,2013-01-26 09:59:00,
2013-01-26 04:04:00,51.8,45.2,29.81,North,0,2.0,4.5,78,0.00,,,0.00,WUHU21623XXSP,2013-01-26 10:04:00,
2013-01-26 04:09:00,52.0,45.3,29.82,North,0,0.9,3.8,78,0.00,,,0.00,WUHU21623XXSP,2013-01-26 10:09:00,
2013-01-26 04:14:00,52.0,45.3,29.81,NNE,22,4.7,4.7,78,0.00,,,0.00,WUHU21623XXSP,2013-01-26 10:14:00,
2013-01-26 04:19:00,52.0,45.3,29.81,NE,45,0.0,4.7,78,0.00,,,0.00,WUHU21623XXSP,2013-01-26 10:19:00,
2013-01-26 04:24:00,52.0,45.7,29.82,North,0,1.1,4.7,79,0.00,,,0.00,WUHU21623XXSP,2013-01-26 10:24:00,
2013-01-26 04:29:00,51.8,45.5,29.82,NNW,337,1.6,4.7,79,0.00,,,0.00,WUHU21623XXSP,2013-01-26 10:29:00,
2013-01-26 04:34:00,51.8,45.5,29.82,North,0,3.6,3.8,79,0.00,,,0.00,WUHU21623XXSP,2013-01-26 10:34:00,
2013-01-26 04:39:00,51.6,45.3,29.82,NW,315,2.5,3.8,79,0.00,,,0.00,WUHU21623XXSP,2013-01-26 10:39:00,
2013-01-26 04:44:00,51.6,45.7,29.82,North,0,2.2,3.8,80,0.00,,,0.00,WUHU21623XXSP,2013-01-26 10:44:00,
2013-01-26 04:49:00,51.4,45.5,29.82,North,0,3.6,3.6,80,0.00,,,0.00,WUHU21623XXSP,2013-01-26 10:49:00,
2013-01-26 04:54:00,51.4,45.5,29.82,NNE,22,2.5,3.6,80,0.00,,,0.00,WUHU21623XXSP,2013-01-26 10:54:00,
2013-01-26 04:59:00,51.4,45.5,29.82,North,0,3.1,3.4,80,0.00,,,0.00,WUHU21623XXSP,2013-01-26 10:59:00,
2013-01-26 05:04:00,51.1,45.3,29.82,North,0,2.5,3.1,81,0.00,,,0.00,WUHU21623XXSP,2013-01-26 11:04:00,
2013-01-26 05:09:00,51.1,45.4,29.82,North,0,2.2,2.9,81,0.00,,,0.00,WUHU21623XXSP,2013-01-26 11:09:00,
2013-01-26 05:14:00,50.9,45.3,29.82,NNE,22,4.3,4.3,81,0.00,,,0.00,WUHU21623XXSP,2013-01-26 11:14:00,
2013-01-26 05:19:00,50.9,45.3,29.82,North,0,3.6,4.3,81,0.00,,,0.00,WUHU21623XXSP,2013-01-26 11:19:00,
2013-01-26 05:24:00,50.9,45.3,29.82,North,0,2.2,3.6,81,0.00,,,0.00,WUHU21623XXSP,2013-01-26 11:24:00,
2013-01-26 05:29:00,50.9,45.3,29.82,NE,45,2.5,3.6,81,0.00,,,0.00,WUHU21623XXSP,2013-01-26 11:29:00,
2013-01-26 05:34:00,50.9,45.3,29.82,NNW,337,0.0,2.5,81,0.00,,,0.00,WUHU21623XXSP,2013-01-26 11:34:00,
2013-01-26 05:39:00,50.9,45.1,29.82,NNE,22,1.8,1.8,81,0.00,,,0.00,WUHU21623XXSP,2013-01-26 11:39:00,
2013-01-26 05:44:00,50.9,45.6,29.82,NNE,22,3.8,3.8,82,0.00,,,0.00,WUHU21623XXSP,2013-01-26 11:44:00,
2013-01-26 05:49:00,50.7,45.4,29.82,NE,45,3.1,3.8,82,0.00,,,0.00,WUHU21623XXSP,2013-01-26 11:49:00,
2013-01-26 05:54:00,50.7,45.4,29.82,North,0,1.1,3.4,82,0.00,,,0.00,WUHU21623XXSP,2013-01-26 11:54:00,
2013-01-26 05:59:00,50.7,45.4,29.82,NNW,337,0.9,2.5,82,0.00,,,0.00,WUHU21623XXSP,2013-01-26 11:59:00,
2013-01-26 06:04:00,50.7,45.4,29.83,North,0,2.9,2.9,82,0.00,,,0.00,WUHU21623XXSP,2013-01-26 12:04:00,
2013-01-26 06:09:00,50.7,45.4,29.83,NNW,337,0.0,4.5,82,0.00,,,0.00,WUHU21623XXSP,2013-01-26 12:09:00,
2013-01-26 06:14:00,50.7,45.4,29.82,NNE,22,1.3,4.5,82,0.00,,,0.00,WUHU21623XXSP,2013-01-26 12:14:00,
2013-01-26 06:19:00,50.7,45.4,29.83,NNE,22,1.1,2.2,82,0.00,,,0.00,WUHU21623XXSP,2013-01-26 12:19:00,
2013-01-26 06:24:00,50.9,45.6,29.83,North,0,3.6,3.6,82,0.00,,,0.00,WUHU21623XXSP,2013-01-26 12:24:00,
2013-01-26 06:29:00,50.9,45.6,29.83,North,0,3.8,3.8,82,0.00,,,0.00,WUHU21623XXSP,2013-01-26 12:29:00,
2013-01-26 06:34:00,50.7,45.4,29.83,NE,45,2.0,3.8,82,0.00,,,0.00,WUHU21623XXSP,2013-01-26 12:34:00,
2013-01-26 06:39:00,50.7,45.4,29.83,NNE,22,3.4,4.7,82,0.00,,,0.00,WUHU21623XXSP,2013-01-26 12:39:00,
2013-01-26 06:44:00,50.7,45.4,29.83,NNE,22,2.2,4.7,82,0.00,,,0.00,WUHU21623XXSP,2013-01-26 12:44:00,
2013-01-26 06:49:00,50.7,45.4,29.83,North,0,3.1,3.1,82,0.00,,,0.00,WUHU21623XXSP,2013-01-26 12:49:00,
2013-01-26 06:54:00,50.9,45.6,29.84,North,0,5.1,5.1,82,0.00,,,0.00,WUHU21623XXSP,2013-01-26 12:54:00,
2013-01-26 06:59:00,50.9,45.6,29.84,North,0,1.1,5.1,82,0.00,,,0.00,WUHU21623XXSP,2013-01-26 12:59:00,
2013-01-26 07:04:00,50.7,45.4,29.84,North,0,1.6,3.8,82,0.00,,,0.00,WUHU21623XXSP,2013-01-26 13:04:00,
2013-01-26 07:09:00,50.7,45.4,29.83,NNW,337,0.0,1.6,82,0.00,,,0.00,WUHU21623XXSP,2013-01-26 13:09:00,
2013-01-26 07:14:00,50.7,45.4,29.84,NNE,22,0.0,2.5,82,0.00,,,0.00,WUHU21623XXSP,2013-01-26 13:14:00,
2013-01-26 07:19:00,50.7,45.4,29.84,NNE,22,3.8,3.8,82,0.00,,,0.00,WUHU21623XXSP,2013-01-26 13:19:00,
2013-01-26 07:24:00,50.5,45.5,29.84,NNE,22,0.0,3.8,83,0.00,,,0.00,WUHU21623XXSP,2013-01-26 13:24:00,
2013-01-26 07:29:00,50.5,45.5,29.84,NNE,22,1.8,14.1,83,0.00,,,0.00,WUHU21623XXSP,2013-01-26 13:29:00,
2013-01-26 07:34:00,50.5,45.5,29.84,NNW,337,1.8,14.1,83,0.00,,,0.00,WUHU21623XXSP,2013-01-26 13:34:00,
2013-01-26 07:39:00,50.5,45.5,29.84,North,0,2.5,2.5,83,0.00,,,0.00,WUHU21623XXSP,2013-01-26 13:39:00,
2013-01-26 07:44:00,50.5,45.5,29.85,North,0,4.5,4.5,83,0.00,,,0.00,WUHU21623XXSP,2013-01-26 13:44:00,
2013-01-26 07:49:00,50.5,45.7,29.85,NE,45,2.9,4.5,83,0.00,,,0.00,WUHU21623XXSP,2013-01-26 13:49:00,
2013-01-26 07:54:00,50.5,45.5,29.85,NNE,22,2.0,4.5,83,0.00,,,0.00,WUHU21623XXSP,2013-01-26 13:54:00,
2013-01-26 07:59:00,50.7,45.7,29.85,North,0,1.3,2.9,83,0.00,,,0.00,WUHU21623XXSP,2013-01-26 13:59:00,
2013-01-26 08:05:00,50.7,45.7,29.85,NE,45,0.0,1.3,83,0.00,,,0.00,WUHU21623XXSP,2013-01-26 14:05:00,
2013-01-26 08:10:00,50.7,45.7,29.85,NNE,22,2.7,2.7,83,0.00,,,0.00,WUHU21623XXSP,2013-01-26 14:10:00,
2013-01-26 08:15:00,50.7,45.7,29.85,NE,45,1.6,2.7,83,0.00,,,0.00,WUHU21623XXSP,2013-01-26 14:15:00,
2013-01-26 08:20:00,50.7,45.7,29.85,NNE,22,2.2,2.2,83,0.00,,,0.00,WUHU21623XXSP,2013-01-26 14:20:00,
2013-01-26 08:25:00,50.7,45.7,29.85,NE,45,0.0,2.2,83,0.00,,,0.00,WUHU21623XXSP,2013-01-26 14:25:00,
2013-01-26 08:30:00,50.9,45.9,29.85,NNE,22,1.3,2.7,83,0.00,,,0.00,WUHU21623XXSP,2013-01-26 14:30:00,
2013-01-26 08:35:00,50.9,45.9,29.85,ENE,67,0.0,2.7,83,0.00,,,0.00,WUHU21623XXSP,2013-01-26 14:35:00,
2013-01-26 08:40:00,51.1,46.1,29.85,NNE,22,3.4,3.4,83,0.00,,,0.00,WUHU21623XXSP,2013-01-26 14:40:00,
2013-01-26 08:45:00,51.1,46.1,29.85,NNW,337,14.1,14.1,83,0.00,,,0.00,WUHU21623XXSP,2013-01-26 14:45:00,
2013-01-26 08:50:00,51.1,46.1,29.85,NNE,22,2.5,14.1,83,0.00,,,0.00,WUHU21623XXSP,2013-01-26 14:50:00,
2013-01-26 08:55:00,51.1,46.1,29.85,North,0,2.9,14.1,83,0.00,,,0.00,WUHU21623XXSP,2013-01-26 14:55:00,
2013-01-26 09:00:00,51.1,46.1,29.85,NNE,22,2.9,2.9,83,0.00,,,0.00,WUHU21623XXSP,2013-01-26 15:00:00,
2013-01-26 09:05:00,51.3,46.4,29.86,NNE,22,2.2,3.4,84,0.00,,,0.00,WUHU21623XXSP,2013-01-26 15:05:00,
2013-01-26 09:10:00,51.3,46.5,29.86,North,0,0.0,3.4,84,0.00,,,0.00,WUHU21623XXSP,2013-01-26 15:10:00,
2013-01-26 09:15:00,51.3,46.5,29.86,NE,45,2.9,2.9,84,0.00,,,0.00,WUHU21623XXSP,2013-01-26 15:15:00,
2013-01-26 09:20:00,51.3,46.5,29.86,NE,45,2.9,2.9,84,0.00,,,0.00,WUHU21623XXSP,2013-01-26 15:20:00,
2013-01-26 09:25:00,51.4,46.7,29.87,NNW,337,0.0,3.1,84,0.00,,,0.00,WUHU21623XXSP,2013-01-26 15:25:00,
2013-01-26 09:30:00,51.4,46.7,29.87,North,0,2.0,3.1,84,0.00,,,0.00,WUHU21623XXSP,2013-01-26 15:30:00,
2013-01-26 09:35:00,51.6,46.7,29.87,NNW,337,0.0,2.0,84,0.00,,,0.00,WUHU21623XXSP,2013-01-26 15:35:00,
2013-01-26 09:40:00,51.4,46.9,29.86,NNE,22,2.9,2.9,84,0.00,,,0.00,WUHU21623XXSP,2013-01-26 15:40:00,
2013-01-26 09:45:00,51.4,46.7,29.86,NNW,337,0.0,2.9,84,0.00,,,0.00,WUHU21623XXSP,2013-01-26 15:45:00,
2013-01-26 09:50:00,51.6,46.9,29.86,NE,45,3.4,3.6,84,0.00,,,0.00,WUHU21623XXSP,2013-01-26 15:50:00,
2013-01-26 09:55:00,51.6,46.9,29.87,North,0,2.2,3.6,84,0.00,,,0.00,WUHU21623XXSP,2013-01-26 15:55:00,
2013-01-26 10:00:00,51.6,46.9,29.86,NNE,22,2.9,4.7,84,0.00,,,0.00,WUHU21623XXSP,2013-01-26 16:00:00,
2013-01-26 10:05:00,51.6,46.9,29.86,NNE,22,3.4,4.7,84,0.00,,,0.00,WUHU21623XXSP,2013-01-26 16:05:00,
2013-01-26 10:10:00,51.6,46.9,29.87,NE,45,1.8,4.3,84,0.00,,,0.00,WUHU21623XXSP,2013-01-26 16:10:00,
2013-01-26 10:15:00,51.6,47.2,29.87,ENE,67,2.7,4.3,85,0.00,,,0.00,WUHU21623XXSP,2013-01-26 16:15:00,
2013-01-26 10:20:00,51.8,47.4,29.87,ENE,67,3.4,3.6,85,0.00,,,0.00,WUHU21623XXSP,2013-01-26 16:20:00,
2013-01-26 10:25:00,52.0,47.6,29.87,NNW,337,2.5,4.9,85,0.00,,,0.00,WUHU21623XXSP,2013-01-26 16:25:00,
2013-01-26 10:30:00,52.0,47.6,29.86,ENE,67,3.8,4.9,85,0.00,,,0.00,WUHU21623XXSP,2013-01-26 16:30:00,
2013-01-26 10:35:00,52.0,47.6,29.87,ENE,67,2.0,3.8,85,0.00,,,0.00,WUHU21623XXSP,2013-01-26 16:35:00,
2013-01-26 10:40:00,52.2,47.8,29.87,ENE,67,3.1,3.1,85,0.00,,,0.00,WUHU21623XXSP,2013-01-26 16:40:00,
2013-01-26 10:45:00,52.3,47.9,29.87,NE,45,4.0,4.0,85,0.00,,,0.00,WUHU21623XXSP,2013-01-26 16:45:00,
2013-01-26 10:50:00,52.5,48.1,29.86,ENE,67,1.6,4.0,85,0.00,,,0.00,WUHU21623XXSP,2013-01-26 16:50:00,
2013-01-26 10:55:00,52.7,48.3,29.86,NE,45,3.6,4.0,85,0.00,,,0.00,WUHU21623XXSP,2013-01-26 16:55:00,
2013-01-26 11:00:00,52.9,48.5,29.86,ENE,67,1.3,4.0,85,0.00,,,0.00,WUHU21623XXSP,2013-01-26 17:00:00,
2013-01-26 11:05:00,52.9,48.5,29.86,NE,45,4.3,4.3,85,0.00,,,0.00,WUHU21623XXSP,2013-01-26 17:05:00,
2013-01-26 11:10:00,53.2,48.8,29.86,ENE,67,2.5,4.3,85,0.00,,,0.00,WUHU21623XXSP,2013-01-26 17:10:00,
2013-01-26 11:15:00,53.2,48.8,29.86,NE,45,4.7,4.7,85,0.00,,,0.00,WUHU21623XXSP,2013-01-26 17:15:00,
2013-01-26 11:20:00,53.2,48.8,29.85,ENE,67,2.9,4.7,85,0.00,,,0.00,WUHU21623XXSP,2013-01-26 17:20:00,
2013-01-26 11:25:00,53.2,48.8,29.86,NNW,337,0.0,4.7,85,0.00,,,0.00,WUHU21623XXSP,2013-01-26 17:25:00,
2013-01-26 11:30:00,53.4,49.0,29.85,NE,45,1.1,3.8,85,0.00,,,0.00,WUHU21623XXSP,2013-01-26 17:30:00,
2013-01-26 11:35:00,53.4,49.0,29.85,NE,45,0.0,2.5,85,0.00,,,0.00,WUHU21623XXSP,2013-01-26 17:35:00,
2013-01-26 11:40:00,53.4,49.0,29.85,North,0,0.0,3.8,85,0.00,,,0.00,WUHU21623XXSP,2013-01-26 17:40:00,
2013-01-26 11:45:00,53.6,49.2,29.85,NE,45,2.2,3.8,85,0.00,,,0.00,WUHU21623XXSP,2013-01-26 17:45:00,
2013-01-26 11:50:00,53.8,49.4,29.85,NE,45,3.8,5.4,85,0.00,,,0.00,WUHU21623XXSP,2013-01-26 17:50:00,
2013-01-26 11:55:00,53.8,49.0,29.85,NE,45,1.6,5.4,84,0.00,,,0.00,WUHU21623XXSP,2013-01-26 17:55:00,
2013-01-26 12:00:00,54.0,49.2,29.85,ENE,67,2.5,3.8,84,0.00,,,0.00,WUHU21623XXSP,2013-01-26 18:00:00,
2013-01-26 12:05:00,54.1,49.7,29.84,NE,45,0.0,3.6,85,0.00,,,0.00,WUHU21623XXSP,2013-01-26 18:05:00,
2013-01-26 12:10:00,54.3,49.9,29.84,NE,45,2.2,4.5,85,0.00,,,0.00,WUHU21623XXSP,2013-01-26 18:10:00,
2013-01-26 12:15:00,54.7,49.9,29.84,East,90,5.8,5.8,84,0.00,,,0.00,WUHU21623XXSP,2013-01-26 18:15:00,
2013-01-26 12:20:00,54.9,50.1,29.83,East,90,0.0,5.8,84,0.00,,,0.00,WUHU21623XXSP,2013-01-26 18:20:00,
2013-01-26 12:25:00,54.9,50.1,29.83,ESE,112,2.7,3.8,84,0.00,,,0.00,WUHU21623XXSP,2013-01-26 18:25:00,
2013-01-26 12:30:00,55.0,50.2,29.83,East,90,0.0,3.8,84,0.00,,,0.00,WUHU21623XXSP,2013-01-26 18:30:00,
2013-01-26 12:35:00,55.0,50.2,29.83,East,90,3.4,3.4,84,0.00,,,0.00,WUHU21623XXSP,2013-01-26 18:35:00,
2013-01-26 12:40:00,55.2,50.4,29.83,ENE,67,3.8,3.8,84,0.00,,,0.00,WUHU21623XXSP,2013-01-26 18:40:00,
2013-01-26 12:45:00,55.2,50.4,29.83,North,0,1.8,3.8,84,0.00,,,0.00,WUHU21623XXSP,2013-01-26 18:45:00,
2013-01-26 12:50:00,55.6,50.8,29.82,ESE,112,2.5,3.1,84,0.00,,,0.00,WUHU21623XXSP,2013-01-26 18:50:00,
2013-01-26 12:55:00,55.8,50.9,29.82,ENE,67,2.2,3.1,84,0.00,,,0.00,WUHU21623XXSP,2013-01-26 18:55:00,
2013-01-26 13:00:00,55.8,50.9,29.81,NE,45,2.7,2.7,84,0.00,,,0.00,WUHU21623XXSP,2013-01-26 19:00:00,
2013-01-26 13:05:00,55.8,50.9,29.82,East,90,1.6,3.1,84,0.00,,,0.00,WUHU21623XXSP,2013-01-26 19:05:00,
2013-01-26 13:10:00,55.9,51.1,29.81,NE,45,0.0,3.1,84,0.00,,,0.00,WUHU21623XXSP,2013-01-26 19:10:00,
2013-01-26 13:15:00,55.9,51.1,29.81,ENE,67,3.1,3.1,84,0.00,,,0.00,WUHU21623XXSP,2013-01-26 19:15:00,
2013-01-26 13:20:00,56.3,51.5,29.81,SE,135,2.0,3.1,84,0.00,,,0.00,WUHU21623XXSP,2013-01-26 19:20:00,
2013-01-26 13:25:00,56.3,51.5,29.81,SE,135,2.5,2.9,84,0.00,,,0.00,WUHU21623XXSP,2013-01-26 19:25:00,
2013-01-26 13:30:00,56.5,51.5,29.80,ESE,112,1.3,2.9,84,0.00,,,0.00,WUHU21623XXSP,2013-01-26 19:30:00,
2013-01-26 13:35:00,56.8,51.7,29.80,NE,45,3.8,3.8,83,0.00,,,0.00,WUHU21623XXSP,2013-01-26 19:35:00,
2013-01-26 13:41:00,56.8,51.7,29.80,ENE,67,2.2,3.8,83,0.00,,,0.00,WUHU21623XXSP,2013-01-26 19:41:00,
2013-01-26 13:46:00,56.8,52.0,29.80,East,90,1.8,3.8,84,0.00,,,0.00,WUHU21623XXSP,2013-01-26 19:46:00,
2013-01-26 13:51:00,57.0,52.2,29.80,ENE,67,0.0,2.2,84,0.00,,,0.00,WUHU21623XXSP,2013-01-26 19:51:00,
2013-01-26 13:56:00,57.0,52.2,29.80,ENE,67,4.5,4.5,83,0.00,,,0.00,WUHU21623XXSP,2013-01-26 19:56:00,
2013-01-26 14:01:00,57.0,51.9,29.80,ENE,67,1.6,4.5,83,0.00,,,0.00,WUHU21623XXSP,2013-01-26 20:01:00,
2013-01-26 14:06:00,57.0,52.2,29.80,ESE,112,1.8,4.7,84,0.00,,,0.00,WUHU21623XXSP,2013-01-26 20:06:00,
2013-01-26 14:11:00,57.0,52.2,29.80,ENE,67,3.1,4.7,84,0.00,,,0.00,WUHU21623XXSP,2013-01-26 20:11:00,
2013-01-26 14:16:00,57.0,52.2,29.80,East,90,0.9,3.1,84,0.00,,,0.00,WUHU21623XXSP,2013-01-26 20:16:00,
2013-01-26 14:21:00,57.0,52.2,29.79,ENE,67,4.7,4.7,84,0.00,,,0.00,WUHU21623XXSP,2013-01-26 20:21:00,
2013-01-26 14:26:00,57.0,52.2,29.79,NE,45,4.7,4.7,84,0.00,,,0.00,WUHU21623XXSP,2013-01-26 20:26:00,
2013-01-26 14:31:00,57.2,52.4,29.79,NNE,22,2.0,4.7,84,0.00,,,0.00,WUHU21623XXSP,2013-01-26 20:31:00,
2013-01-26 14:36:00,57.4,52.2,29.79,East,90,3.4,4.3,84,0.00,,,0.00,WUHU21623XXSP,2013-01-26 20:36:00,
2013-01-26 14:41:00,57.2,52.6,29.79,East,90,0.0,3.4,84,0.00,,,0.00,WUHU21623XXSP,2013-01-26 20:41:00,
2013-01-26 14:46:00,57.4,52.6,29.79,East,90,2.9,2.9,84,0.00,,,0.00,WUHU21623XXSP,2013-01-26 20:46:00,
2013-01-26 14:51:00,57.4,52.6,29.79,ESE,112,2.5,2.9,84,0.00,,,0.00,WUHU21623XXSP,2013-01-26 20:51:00,
2013-01-26 14:56:00,57.4,52.6,29.78,ENE,67,4.5,4.5,84,0.00,,,0.00,WUHU21623XXSP,2013-01-26 20:56:00,
2013-01-26 15:01:00,57.4,52.6,29.78,East,90,4.5,4.5,84,0.00,,,0.00,WUHU21623XXSP,2013-01-26 21:01:00,
2013-01-26 15:06:00,57.6,52.7,29.78,ENE,67,1.3,4.5,84,0.00,,,0.00,WUHU21623XXSP,2013-01-26 21:06:00,
2013-01-26 15:11:00,57.6,52.7,29.78,ENE,67,2.5,3.4,84,0.00,,,0.00,WUHU21623XXSP,2013-01-26 21:11:00,
2013-01-26 15:16:00,57.6,52.7,29.78,East,90,5.6,5.6,84,0.00,,,0.00,WUHU21623XXSP,2013-01-26 21:16:00,
2013-01-26 15:21:00,57.7,52.9,29.78,ENE,67,5.1,5.6,84,0.00,,,0.00,WUHU21623XXSP,2013-01-26 21:21:00,
2013-01-26 15:26:00,57.7,53.1,29.78,ENE,67,6.3,6.3,84,0.00,,,0.00,WUHU21623XXSP,2013-01-26 21:26:00,
2013-01-26 15:31:00,57.9,53.4,29.77,NNE,22,1.6,6.3,85,0.00,,,0.00,WUHU21623XXSP,2013-01-26 21:31:00,
2013-01-26 15:36:00,58.1,53.3,29.77,East,90,1.6,4.3,84,0.00,,,0.00,WUHU21623XXSP,2013-01-26 21:36:00,
2013-01-26 15:41:00,58.3,53.5,29.77,East,90,1.6,4.3,84,0.00,,,0.00,WUHU21623XXSP,2013-01-26 21:41:00,
2013-01-26 15:46:00,58.5,53.6,29.77,East,90,4.3,4.3,84,0.00,,,0.00,WUHU21623XXSP,2013-01-26 21:46:00,
2013-01-26 15:51:00,58.8,54.0,29.76,ENE,67,1.1,4.3,84,0.00,,,0.00,WUHU21623XXSP,2013-01-26 21:51:00,
2013-01-26 15:56:00,59.0,54.2,29.76,ENE,67,2.7,3.8,84,0.00,,,0.00,WUHU21623XXSP,2013-01-26 21:56:00,
2013-01-26 16:01:00,59.2,54.4,29.76,East,90,2.5,4.7,84,0.00,,,0.00,WUHU21623XXSP,2013-01-26 22:01:00,
2013-01-26 16:06:00,59.4,54.5,29.76,East,90,4.5,4.7,84,0.00,,,0.00,WUHU21623XXSP,2013-01-26 22:06:00,
2013-01-26 16:11:00,59.4,54.5,29.77,ENE,67,3.4,4.5,84,0.00,,,0.00,WUHU21623XXSP,2013-01-26 22:11:00,
2013-01-26 16:16:00,59.4,54.5,29.76,ENE,67,0.0,4.0,84,0.00,,,0.00,WUHU21623XXSP,2013-01-26 22:16:00,
2013-01-26 16:21:00,59.5,54.5,29.76,East,90,2.5,2.5,84,0.00,,,0.00,WUHU21623XXSP,2013-01-26 22:21:00,
2013-01-26 16:26:00,59.4,54.5,29.76,ENE,67,4.5,5.4,84,0.00,,,0.00,WUHU21623XXSP,2013-01-26 22:26:00,
2013-01-26 16:31:00,59.4,54.5,29.76,NE,45,6.3,8.3,84,0.00,,,0.00,WUHU21623XXSP,2013-01-26 22:31:00,
2013-01-26 16:36:00,59.4,54.5,29.76,North,0,2.2,8.3,84,0.00,,,0.00,WUHU21623XXSP,2013-01-26 22:36:00,
2013-01-26 16:41:00,59.4,54.5,29.76,ENE,67,2.5,6.3,84,0.00,,,0.00,WUHU21623XXSP,2013-01-26 22:41:00,
2013-01-26 16:46:00,59.4,54.5,29.76,East,90,3.1,3.6,84,0.00,,,0.00,WUHU21623XXSP,2013-01-26 22:46:00,
2013-01-26 16:51:00,59.5,54.7,29.77,ESE,112,2.5,3.6,84,0.00,,,0.00,WUHU21623XXSP,2013-01-26 22:51:00,
2013-01-26 16:56:00,59.5,54.7,29.76,ESE,112,2.0,3.6,84,0.00,,,0.00,WUHU21623XXSP,2013-01-26 22:56:00,
2013-01-26 17:01:00,59.5,54.7,29.77,ENE,67,4.5,4.5,84,0.00,,,0.00,WUHU21623XXSP,2013-01-26 23:01:00,
2013-01-26 17:06:00,59.5,54.7,29.77,ENE,67,1.6,4.7,84,0.00,,,0.00,WUHU21623XXSP,2013-01-26 23:06:00,
2013-01-26 17:11:00,59.5,54.7,29.77,ENE,67,2.2,4.7,84,0.00,,,0.00,WUHU21623XXSP,2013-01-26 23:11:00,
2013-01-26 17:16:00,59.5,54.7,29.77,East,90,0.0,2.2,84,0.00,,,0.00,WUHU21623XXSP,2013-01-26 23:16:00,
2013-01-26 17:21:00,59.5,54.7,29.76,ENE,67,3.1,4.5,84,0.00,,,0.00,WUHU21623XXSP,2013-01-26 23:21:00,
2013-01-26 17:26:00,59.5,54.7,29.77,ESE,112,2.2,4.5,84,0.00,,,0.00,WUHU21623XXSP,2013-01-26 23:26:00,
2013-01-26 17:31:00,59.5,54.7,29.77,ENE,67,0.0,3.4,84,0.00,,,0.00,WUHU21623XXSP,2013-01-26 23:31:00,
2013-01-26 17:36:00,59.4,54.5,29.77,ENE,67,0.0,3.4,84,0.00,,,0.00,WUHU21623XXSP,2013-01-26 23:36:00,
2013-01-26 17:41:00,59.4,54.5,29.77,NNE,22,0.0,2.0,84,0.00,,,0.00,WUHU21623XXSP,2013-01-26 23:41:00,
2013-01-26 17:46:00,59.2,54.4,29.77,NE,45,1.6,1.6,84,0.00,,,0.00,WUHU21623XXSP,2013-01-26 23:46:00,
2013-01-26 17:51:00,59.2,54.4,29.77,NE,45,3.1,3.1,84,0.00,,,0.00,WUHU21623XXSP,2013-01-26 23:51:00,
2013-01-26 17:56:00,59.0,54.2,29.76,ENE,67,2.9,3.1,84,0.00,,,0.00,WUHU21623XXSP,2013-01-26 23:56:00,
2013-01-26 18:01:00,58.8,54.0,29.77,NE,45,2.5,3.1,84,0.00,,,0.00,WUHU21623XXSP,2013-01-27 00:01:00,
2013-01-26 18:06:00,58.8,54.0,29.76,NE,45,3.4,3.4,84,0.00,,,0.00,WUHU21623XXSP,2013-01-27 00:06:00,
2013-01-26 18:11:00,58.6,53.8,29.76,NE,45,0.0,3.4,84,0.00,,,0.00,WUHU21623XXSP,2013-01-27 00:11:00,
2013-01-26 18:16:00,58.5,53.6,29.76,ENE,67,1.8,1.8,84,0.00,,,0.00,WUHU21623XXSP,2013-01-27 00:16:00,
2013-01-26 18:21:00,58.3,53.5,29.76,NE,45,0.0,1.8,84,0.00,,,0.00,WUHU21623XXSP,2013-01-27 00:21:00,
2013-01-26 18:26:00,58.3,53.5,29.76,NE,45,0.0,0.0,84,0.00,,,0.00,WUHU21623XXSP,2013-01-27 00:26:00,
2013-01-26 18:31:00,57.9,53.1,29.76,NE,45,2.0,2.0,84,0.00,,,0.00,WUHU21623XXSP,2013-01-27 00:31:00,
2013-01-26 18:36:00,57.9,53.1,29.76,ENE,67,2.5,2.5,84,0.00,,,0.00,WUHU21623XXSP,2013-01-27 00:36:00,
2013-01-26 18:42:00,57.9,53.1,29.77,ENE,67,0.0,2.5,84,0.00,,,0.00,WUHU21623XXSP,2013-01-27 00:42:00,
2013-01-26 18:47:00,57.7,52.9,29.77,ENE,67,1.3,1.8,84,0.00,,,0.00,WUHU21623XXSP,2013-01-27 00:47:00,
2013-01-26 18:52:00,57.6,52.7,29.77,East,90,0.0,1.3,84,0.00,,,0.00,WUHU21623XXSP,2013-01-27 00:52:00,
2013-01-26 18:57:00,57.6,52.7,29.76,East,90,0.0,1.3,84,0.00,,,0.00,WUHU21623XXSP,2013-01-27 00:57:00,
2013-01-26 19:02:00,57.4,52.6,29.77,ESE,112,0.0,0.0,84,0.00,,,0.00,WUHU21623XXSP,2013-01-27 01:02:00,
2013-01-26 19:07:00,57.4,52.6,29.77,ESE,112,0.0,0.0,84,0.00,,,0.00,WUHU21623XXSP,2013-01-27 01:07:00,
2013-01-26 19:12:00,57.4,52.6,29.77,East,90,0.0,0.0,84,0.00,,,0.00,WUHU21623XXSP,2013-01-27 01:12:00,
2013-01-26 19:17:00,57.4,52.6,29.77,East,90,0.0,0.0,84,0.00,,,0.00,WUHU21623XXSP,2013-01-27 01:17:00,
2013-01-26 19:22:00,57.0,52.2,29.77,NE,45,0.0,0.0,84,0.00,,,0.00,WUHU21623XXSP,2013-01-27 01:22:00,
2013-01-26 19:27:00,57.0,52.2,29.77,NNE,22,0.0,0.0,84,0.00,,,0.00,WUHU21623XXSP,2013-01-27 01:27:00,
2013-01-26 19:32:00,57.0,52.2,29.78,NNE,22,0.0,0.0,84,0.00,,,0.00,WUHU21623XXSP,2013-01-27 01:32:00,
2013-01-26 19:37:00,57.0,52.2,29.77,NE,45,1.1,1.1,84,0.00,,,0.00,WUHU21623XXSP,2013-01-27 01:37:00,
2013-01-26 19:42:00,57.0,52.2,29.78,NE,45,0.0,1.1,84,0.00,,,0.00,WUHU21623XXSP,2013-01-27 01:42:00,
2013-01-26 19:47:00,56.8,52.0,29.78,NE,45,0.0,0.0,84,0.00,,,0.00,WUHU21623XXSP,2013-01-27 01:47:00,
2013-01-26 19:52:00,56.8,52.0,29.78,NE,45,0.0,0.0,84,0.00,,,0.00,WUHU21623XXSP,2013-01-27 01:52:00,
2013-01-26 19:57:00,56.8,52.0,29.78,ENE,67,0.0,1.3,84,0.00,,,0.00,WUHU21623XXSP,2013-01-27 01:57:00,
2013-01-26 20:02:00,56.7,51.8,29.78,NNE,22,0.0,1.3,84,0.00,,,0.00,WUHU21623XXSP,2013-01-27 02:02:00,
2013-01-26 20:07:00,56.5,51.7,29.78,ENE,67,0.0,0.0,84,0.00,,,0.00,WUHU21623XXSP,2013-01-27 02:07:00,
2013-01-26 20:12:00,56.3,51.5,29.78,East,90,0.0,0.0,84,0.00,,,0.00,WUHU21623XXSP,2013-01-27 02:12:00,
2013-01-26 20:17:00,56.1,51.3,29.78,ENE,67,0.0,0.0,84,0.00,,,0.00,WUHU21623XXSP,2013-01-27 02:17:00,
2013-01-26 20:22:00,55.9,50.8,29.78,ENE,67,0.0,0.0,83,0.00,,,0.00,WUHU21623XXSP,2013-01-27 02:22:00,
2013-01-26 20:27:00,55.8,50.9,29.78,ENE,67,0.0,0.0,84,0.00,,,0.00,WUHU21623XXSP,2013-01-27 02:27:00,
2013-01-26 20:32:00,55.6,50.8,29.78,East,90,0.7,0.7,84,0.00,,,0.00,WUHU21623XXSP,2013-01-27 02:32:00,
2013-01-26 20:37:00,55.4,50.8,29.79,East,90,0.0,0.7,84,0.00,,,0.00,WUHU21623XXSP,2013-01-27 02:37:00,
2013-01-26 20:42:00,55.2,50.4,29.78,ENE,67,3.4,3.4,84,0.00,,,0.00,WUHU21623XXSP,2013-01-27 02:42:00,
2013-01-26 20:47:00,55.2,50.4,29.78,ENE,67,3.4,3.4,85,0.00,,,0.00,WUHU21623XXSP,2013-01-27 02:47:00,
2013-01-26 20:52:00,55.2,50.7,29.79,East,90,0.0,3.4,85,0.00,,,0.00,WUHU21623XXSP,2013-01-27 02:52:00,
2013-01-26 20:57:00,55.2,50.7,29.78,ENE,67,1.3,2.9,85,0.00,,,0.00,WUHU21623XXSP,2013-01-27 02:57:00,
2013-01-26 21:02:00,55.2,50.7,29.79,ENE,67,0.0,2.9,85,0.00,,,0.00,WUHU21623XXSP,2013-01-27 03:02:00,
2013-01-26 21:07:00,55.2,51.0,29.79,East,90,1.6,1.6,86,0.00,,,0.00,WUHU21623XXSP,2013-01-27 03:07:00,
2013-01-26 21:12:00,55.2,50.7,29.79,East,90,1.3,1.6,85,0.00,,,0.00,WUHU21623XXSP,2013-01-27 03:12:00,
2013-01-26 21:17:00,55.2,51.0,29.79,East,90,0.9,1.3,86,0.00,,,0.00,WUHU21623XXSP,2013-01-27 03:17:00,
2013-01-26 21:22:00,55.2,51.0,29.79,ESE,112,0.9,0.9,86,0.00,,,0.00,WUHU21623XXSP,2013-01-27 03:22:00,
2013-01-26 21:27:00,55.2,51.0,29.79,ESE,112,3.1,3.1,86,0.00,,,0.00,WUHU21623XXSP,2013-01-27 03:27:00,
2013-01-26 21:32:00,55.2,51.0,29.79,East,90,0.0,3.8,86,0.00,,,0.00,WUHU21623XXSP,2013-01-27 03:32:00,
2013-01-26 21:37:00,55.2,51.0,29.79,ESE,112,0.0,3.8,86,0.00,,,0.00,WUHU21623XXSP,2013-01-27 03:37:00,
2013-01-26 21:42:00,55.0,50.9,29.79,ESE,112,1.3,2.5,86,0.00,,,0.00,WUHU21623XXSP,2013-01-27 03:42:00,
2013-01-26 21:47:00,55.0,50.9,29.79,East,90,3.4,3.4,86,0.00,,,0.00,WUHU21623XXSP,2013-01-27 03:47:00,
2013-01-26 21:52:00,54.9,51.0,29.79,ENE,67,0.0,3.4,87,0.00,,,0.00,WUHU21623XXSP,2013-01-27 03:52:00,
2013-01-26 21:57:00,54.7,50.8,29.79,ENE,67,2.5,2.5,87,0.00,,,0.00,WUHU21623XXSP,2013-01-27 03:57:00,
2013-01-26 22:02:00,54.7,50.8,29.79,ESE,112,2.5,2.5,87,0.00,,,0.00,WUHU21623XXSP,2013-01-27 04:02:00,
2013-01-26 22:07:00,54.7,50.8,29.79,SE,135,1.8,2.5,87,0.00,,,0.00,WUHU21623XXSP,2013-01-27 04:07:00,
2013-01-26 22:12:00,54.7,50.8,29.79,ENE,67,2.2,2.2,87,0.00,,,0.00,WUHU21623XXSP,2013-01-27 04:12:00,
2013-01-26 22:17:00,54.7,50.8,29.79,ESE,112,2.5,2.5,87,0.00,,,0.00,WUHU21623XXSP,2013-01-27 04:17:00,
2013-01-26 22:22:00,54.7,50.8,29.79,ESE,112,0.0,2.5,87,0.00,,,0.00,WUHU21623XXSP,2013-01-27 04:22:00,
2013-01-26 22:27:00,54.7,50.8,29.79,ESE,112,1.3,3.1,87,0.00,,,0.00,WUHU21623XXSP,2013-01-27 04:27:00,
2013-01-26 22:32:00,54.7,50.8,29.79,SE,135,0.0,3.1,87,0.00,,,0.00,WUHU21623XXSP,2013-01-27 04:32:00,
2013-01-26 22:37:00,54.7,50.8,29.79,ESE,112,0.0,2.2,87,0.00,,,0.00,WUHU21623XXSP,2013-01-27 04:37:00,
2013-01-26 22:42:00,54.7,50.8,29.79,ENE,67,0.0,0.0,87,0.00,,,0.00,WUHU21623XXSP,2013-01-27 04:42:00,
2013-01-26 22:47:00,54.7,50.8,29.79,ENE,67,0.0,0.0,87,0.00,,,0.00,WUHU21623XXSP,2013-01-27 04:47:00,
2013-01-26 22:52:00,54.7,50.5,29.79,East,90,0.0,0.0,86,0.00,,,0.00,WUHU21623XXSP,2013-01-27 04:52:00,
2013-01-26 22:57:00,54.7,50.5,29.79,ENE,67,0.0,0.0,86,0.00,,,0.00,WUHU21623XXSP,2013-01-27 04:57:00,
2013-01-26 23:02:00,54.7,50.5,29.79,East,90,0.0,0.0,86,0.00,,,0.00,WUHU21623XXSP,2013-01-27 05:02:00,
2013-01-26 23:07:00,54.7,50.5,29.79,East,90,0.0,0.0,86,0.00,,,0.00,WUHU21623XXSP,2013-01-27 05:07:00,
2013-01-26 23:12:00,54.7,50.5,29.79,East,90,0.0,0.0,86,0.00,,,0.00,WUHU21623XXSP,2013-01-27 05:12:00,
2013-01-26 23:17:00,54.7,50.5,29.79,East,90,0.0,0.0,86,0.00,,,0.00,WUHU21623XXSP,2013-01-27 05:17:00,
2013-01-26 23:22:00,54.7,50.5,29.78,ENE,67,0.0,0.0,86,0.00,,,0.00,WUHU21623XXSP,2013-01-27 05:22:00,
2013-01-26 23:27:00,54.5,50.4,29.79,ENE,67,0.0,0.0,86,0.00,,,0.00,WUHU21623XXSP,2013-01-27 05:27:00,
2013-01-26 23:32:00,54.3,50.2,29.79,ESE,112,0.0,0.0,86,0.00,,,0.00,WUHU21623XXSP,2013-01-27 05:32:00,
2013-01-26 23:38:00,54.3,50.2,29.79,SE,135,0.0,0.0,86,0.00,,,0.00,WUHU21623XXSP,2013-01-27 05:38:00,
2013-01-26 23:43:00,54.3,50.2,29.79,SSE,157,0.9,0.9,86,0.00,,,0.00,WUHU21623XXSP,2013-01-27 05:43:00,
2013-01-26 23:48:00,54.3,50.2,29.78,SSE,157,1.3,1.3,86,0.00,,,0.00,WUHU21623XXSP,2013-01-27 05:48:00,
2013-01-26 23:53:00,54.5,50.4,29.78,SSE,157,3.1,5.6,86,0.00,,,0.00,WUHU21623XXSP,2013-01-27 05:53:00,
2013-01-26 23:58:00,54.7,50.5,29.78,SSE,157,2.5,5.6,86,0.00,,,0.00,WUHU21623XXSP,2013-01-27 05:58:00,